STARLINK-31635, 59511

Orbit data source: Space-Track

STARLINK-31635, 59511 is a payload satellite owned by SpaceX/Seattle (US) in LEO that was launched on Wed, 17 Apr 2024 UTC via an FALCON 9 launch vehicle from the Air Force Eastern Test Range (AFETR). Payload-class satellites include a variety of spacecraft equipped with specific instruments for various scientific and technological missions. These include communications satellites like Starlink; space stations such as the ISS; scientific satellites like the Hubble; Earth observation satellites from companies like Planet Labs, Umbra, and HawkEye 360; GPS; miniature CubeSats for education and research; and military/defense satellites.

Loading next visibility...
Identifier
59511, 2024-073A
Orbit
LEO
Country
Flag of USUS
Related business
Manufacturer
SpaceX/Seattle
Mission
Operational Commercial Communications
Bus & Motor
STARLINK V2M, Unknown motor
Mass
730 kg wet, ~700 kg dry
Launch date (UTC)
2024-04-17 (2 years ago)
Launch vehicle
FALCON 9
Launch site
Air Force Eastern Test Range (AFETR)
Object type
Payload
Rocket body
Debris
Shape & HBR
Box + 2 Pan, 17.7 m
Radar Cross Section
33.884 m², Large (>1 m²)

Expand to show TLE details & history
Last TLE update: 2 days ago

TLE from 2 days ago
0 STARLINK-31635
1 59511U 24073A   26171.17403491  .00002496  00000-0  10023-3 0  9993
2 59511  43.0028  98.8736 0001235 268.3360  91.7351 15.27572216121851
Epoch: 2026-06-20T04:10Z
TLE epoch observation values (Epoch: 2026-06-20T04:10:36.616Z)
Latitude
0.00005°
Longitude
127.82864°
Altitude
482.874 km
Speed
7.626 km/s
True Right ascension
06h 35m 29s
True Declination
0° 00' 00"
Sunlit
Object was in daylight at epoch
Visualization orbit readout
Latitude
Unknown
Longitude
Unknown
Altitude
Unknown
Speed
Unknown
Apparent Right ascension
Unknown
Apparent Declination
Unknown
Sunlit
N/A
Visualization observer readout
Local Sidereal Time
14:12:40
Azimuth
Unknown
Elevation
Unknown
Doppler factor
Unknown
Orbital elements
Apogee altitude
485.865 km
Perigee altitude
484.17 km
Semi-major axis
6,863.154 km
Eccentricity
0.00012
Inclination
43.0028°
RAAN
98.8736°
Arg. of periapsis
268.336°
True anomaly
91.74925°
Mean anomaly
91.7351°
Eccentric anomaly
91.74217°
Mean motion
3.81731 °/min
Orbital period
94.31 mins
BSTAR
0.00010023
Loading maneuver chart data...
Computing Atmospheric mass density...

Documentation

Showing up to 5 results
|